Powrót do katalogu

SL-8 R/B

AktywnyPO
NORAD 16799·ROCKET BODY·🇷🇺 Russia

Wystrzelony Jun 18, 1986 z Plesetsk Cosmodrome

Loading…

Następne Przeloty (najbliższe 24 godziny)

TLE

ŚwieżeSource: Space-Track

Epoka: Sep 13, 2026, 23:17 UTC

1 16799U 86047B   26256.97036904 -.00000047  00000-0 -61958-4 0  9992
2 16799  82.9147  80.1582 0066309 181.8864 178.2054 13.77613906955750

Śledź SL-8 R/B w czasie rzeczywistym z AllMySat

Download on the App Store